Location: Deurze
(52.9838°N, 6.6090°E)
Time: 18:44:05
(UTC+00:00)

SPOT 3 Rocket - Pass Details

Date: 11 March 2026
Orbit: 774 x 790 km, 98.5° (Epoch: 20 April)

Event Time Altitude Azimuth Distance (km) Brightness Sun altitude
Exits shadow 20:58:56 64° 320° (NW) 879 3.9 -30.0°
Drops below altitude 10° 21:03:24 10° 343° (NNW) 2,368 6.7 -30.5°
Sets 21:05:44 0° 344° (NNW) 3,302 7.6 -30.8°
